time, Switch, Flow(0), Analog(2)
yyyy/mm/dd HH:MM:SS.fff, True=FILTERED|False=TOTAL, L/min, V
2023/07/06 04:00:01.901, True, 4.385, 0.152361
2023/07/06 04:00:02.405, True, 4.640, 0.153353
2023/07/06 04:00:02.909, True, 4.311, 0.154192
2023/07/06 04:00:03.404, True, 4.380, 0.156634
2023/07/06 04:00:03.908, True, 3.651, 0.152590
2023/07/06 04:00:04.413, True, 2.648, 0.152972
2023/07/06 04:00:04.909, True, 1.012, 0.153811
2023/07/06 04:00:05.412, True, 0.994, 0.152743
2023/07/06 04:00:05.917, True, 0.664, 0.152438
2023/07/06 04:00:06.412, True, 1.011, 0.153201
2023/07/06 04:00:06.917, True, 0.663, 0.154879
2023/07/06 04:00:07.421, True, 0.663, 0.155566
2023/07/06 04:00:07.917, True, 0.675, 0.156176
2023/07/06 04:00:08.420, True, 0.663, 0.153964
2023/07/06 04:00:08.925, True, 0.662, 0.154040
2023/07/06 04:00:09.421, True, 0.674, 0.161135
2023/07/06 04:00:09.924, True, 0.995, 0.153582
2023/07/06 04:00:10.429, True, 0.664, 0.156329
2023/07/06 04:00:10.932, True, 0.663, 0.154726
2023/07/06 04:00:11.428, True, 0.674, 0.152132
2023/07/06 04:00:11.933, True, 0.662, 0.152819
2023/07/06 04:00:12.437, True, 0.663, 0.153735
2023/07/06 04:00:12.933, True, 0.674, 0.153201
2023/07/06 04:00:13.437, True, 0.663, 0.152667
2023/07/06 04:00:13.941, True, 0.663, 0.152667
2023/07/06 04:00:14.445, True, 0.995, 0.152056
2023/07/06 04:00:14.940, True, 0.673, 0.151675
2023/07/06 04:00:15.445, True, 0.664, 0.151675
2023/07/06 04:00:15.949, True, 0.662, 0.152895
2023/07/06 04:00:16.445, True, 0.674, 0.154040
2023/07/06 04:00:16.948, True, 0.664, 0.154498
2023/07/06 04:00:17.453, True, 0.663, 0.153124
2023/07/06 04:00:17.948, True, 0.673, 0.153582
2023/07/06 04:00:18.452, True, 0.664, 0.154116
2023/07/06 04:00:18.957, True, 0.663, 0.152285
2023/07/06 04:00:19.453, True, 0.673, 0.155032
2023/07/06 04:00:19.957, True, 0.663, 0.153964
2023/07/06 04:00:20.460, True, 0.664, 0.153887
2023/07/06 04:00:20.965, True, 0.663, 0.153048
2023/07/06 04:00:21.460, True, 0.674, 0.154650
2023/07/06 04:00:21.965, True, 0.663, 0.154116
2023/07/06 04:00:22.461, True, 0.674, 0.151980
2023/07/06 04:00:22.964, True, 0.662, 0.153964
2023/07/06 04:00:23.469, True, 0.664, 0.152056
2023/07/06 04:00:23.972, True, 0.664, 0.154879
2023/07/06 04:00:24.469, True, 1.011, 0.155642
2023/07/06 04:00:24.972, True, 0.662, 0.155108
2023/07/06 04:00:25.477, True, 0.664, 0.152285
2023/07/06 04:00:25.973, True, 0.673, 0.153277
2023/07/06 04:00:26.477, True, 0.664, 0.153658
2023/07/06 04:00:26.980, True, 0.663, 0.155184
2023/07/06 04:00:27.485, True, 0.663, 0.154955
2023/07/06 04:00:27.980, True, 0.674, 0.154650
2023/07/06 04:00:28.484, True, 0.664, 0.151980
2023/07/06 04:00:28.981, True, 0.674, 0.153429
2023/07/06 04:00:29.485, True, 0.662, 0.151827
2023/07/06 04:00:29.988, True, 0.664, 0.152743
2023/07/06 04:00:30.493, True, 0.995, 0.151904
2023/07/06 04:00:30.989, True, 0.674, 0.154803
2023/07/06 04:00:31.493, True, 0.662, 0.155566
2023/07/06 04:00:31.997, True, 0.662, 0.155413
2023/07/06 04:00:32.493, True, 0.675, 0.154040
2023/07/06 04:00:32.997, True, 0.662, 0.156100
2023/07/06 04:00:33.493, True, 0.675, 0.153887
2023/07/06 04:00:33.997, True, 0.663, 0.153887
2023/07/06 04:00:34.501, True, 0.664, 0.155108
2023/07/06 04:00:35.004, True, 0.662, 0.153887
2023/07/06 04:00:35.500, True, 0.675, 0.156634
2023/07/06 04:00:36.005, True, 0.663, 0.154192
2023/07/06 04:00:36.508, True, 0.995, 0.153887
2023/07/06 04:00:37.005, True, 0.673, 0.153964
2023/07/06 04:00:37.509, True, 0.664, 0.154803
2023/07/06 04:00:38.013, True, 0.663, 0.155184
2023/07/06 04:00:38.509, True, 0.673, 0.153811
2023/07/06 04:00:39.012, True, 0.663, 0.154498
2023/07/06 04:00:39.517, True, 0.664, 0.153582
2023/07/06 04:00:40.012, True, 0.673, 0.153811
2023/07/06 04:00:40.517, True, 0.664, 0.154192
2023/07/06 04:00:41.021, True, 0.664, 0.154040
2023/07/06 04:00:41.525, True, 0.662, 0.152972
2023/07/06 04:00:42.021, True, 0.675, 0.153124
2023/07/06 04:00:42.524, True, 0.663, 0.155642
2023/07/06 04:00:43.020, True, 0.672, 0.154955
2023/07/06 04:00:43.524, True, 0.995, 0.153201
2023/07/06 04:00:44.029, True, 0.663, 0.154269
2023/07/06 04:00:44.525, True, 0.673, 0.153353
2023/07/06 04:00:45.028, True, 0.664, 0.152056
2023/07/06 04:00:45.532, True, 0.663, 0.153429
2023/07/06 04:00:46.028, True, 0.673, 0.153964
2023/07/06 04:00:46.533, True, 0.663, 0.152972
2023/07/06 04:00:47.037, True, 0.663, 0.153353
2023/07/06 04:00:47.533, True, 0.674, 0.153048
2023/07/06 04:00:48.037, True, 0.663, 0.153124
2023/07/06 04:00:48.541, True, 0.664, 0.154803
2023/07/06 04:00:49.045, True, 0.663, 0.154574
2023/07/06 04:00:49.541, True, 0.673, 0.153964
2023/07/06 04:00:50.045, True, 0.663, 0.156252
2023/07/06 04:00:50.541, True, 0.675, 0.152667
2023/07/06 04:00:51.045, True, 0.663, 0.155261
2023/07/06 04:00:51.549, True, 0.995, 0.156023
2023/07/06 04:00:52.052, True, 0.663, 0.151980
2023/07/06 04:00:52.549, True, 0.675, 0.153887
2023/07/06 04:00:53.052, True, 0.663, 0.152590
2023/07/06 04:00:53.557, True, 0.663, 0.153811
2023/07/06 04:00:54.053, True, 0.673, 0.151980
2023/07/06 04:00:54.557, True, 0.663, 0.153964
2023/07/06 04:00:55.061, True, 0.663, 0.152972
2023/07/06 04:00:55.556, True, 0.674, 0.156405
2023/07/06 04:00:56.060, True, 0.663, 0.153658
2023/07/06 04:00:56.564, True, 0.664, 0.151904
2023/07/06 04:00:57.061, True, 0.673, 0.152132
2023/07/06 04:00:57.565, True, 0.663, 0.154574
2023/07/06 04:00:58.069, True, 0.664, 0.152667
2023/07/06 04:00:58.564, True, 0.673, 0.155108
2023/07/06 04:00:59.069, True, 0.663, 0.154498
2023/07/06 04:00:59.573, True, 0.664, 0.153048
2023/07/06 04:01:00.069, True, 0.674, 0.153048
2023/07/06 04:01:00.573, True, 0.663, 0.154726
2023/07/06 04:01:01.077, True, 0.663, 0.154421
2023/07/06 04:01:01.573, True, 0.674, 0.154498
2023/07/06 04:01:02.077, True, 0.996, 0.154574
2023/07/06 04:01:02.581, True, 0.663, 0.155795
2023/07/06 04:01:03.077, True, 0.337, 0.153429
2023/07/06 04:01:03.581, True, 0.662, 0.152209
2023/07/06 04:01:04.085, True, 0.664, 0.154040
2023/07/06 04:01:04.581, True, 0.674, 0.153277
2023/07/06 04:01:05.085, True, 0.663, 0.151751
2023/07/06 04:01:05.588, True, 0.664, 0.153658
2023/07/06 04:01:06.085, True, 0.673, 0.153658
2023/07/06 04:01:06.589, True, 0.663, 0.152819
2023/07/06 04:01:07.093, True, 0.664, 0.153048
2023/07/06 04:01:07.588, True, 0.674, 0.151980
2023/07/06 04:01:08.093, True, 0.663, 0.153429
2023/07/06 04:01:08.597, True, 0.663, 0.152361
2023/07/06 04:01:09.092, True, 0.675, 0.153582
2023/07/06 04:01:09.597, True, 0.662, 0.155413
2023/07/06 04:01:10.100, True, 0.664, 0.156023
2023/07/06 04:01:10.605, True, 0.663, 0.154421
2023/07/06 04:01:11.100, True, 0.673, 0.153658
2023/07/06 04:01:11.605, True, 0.663, 0.153811
2023/07/06 04:01:12.101, True, 0.674, 0.153582
2023/07/06 04:01:12.604, True, 0.663, 0.152209
2023/07/06 04:01:13.109, True, 0.663, 0.154498
2023/07/06 04:01:13.605, True, 0.674, 0.156252
2023/07/06 04:01:14.108, True, 0.664, 0.152819
2023/07/06 04:01:14.613, True, 0.662, 0.155871
2023/07/06 04:01:15.108, True, 0.675, 0.153048
2023/07/06 04:01:15.613, True, 0.662, 0.155642
2023/07/06 04:01:16.117, True, 0.664, 0.156634
2023/07/06 04:01:16.620, True, 0.662, 0.153964
2023/07/06 04:01:17.117, True, 0.674, 0.154421
2023/07/06 04:01:17.620, True, 0.664, 0.154574
2023/07/06 04:01:18.124, True, 0.663, 0.156786
2023/07/06 04:01:18.620, True, 0.675, 0.152209
2023/07/06 04:01:19.125, True, 0.662, 0.153964
2023/07/06 04:01:19.629, True, 0.663, 0.156710
2023/07/06 04:01:20.125, True, 0.675, 0.155261
2023/07/06 04:01:20.629, True, 0.663, 0.154726
2023/07/06 04:01:21.133, True, 0.664, 0.155642
2023/07/06 04:01:21.637, True, 0.662, 0.154040
2023/07/06 04:01:22.133, True, 0.674, 0.154269
2023/07/06 04:01:22.637, True, 0.664, 0.154803
2023/07/06 04:01:23.141, True, 0.663, 0.154421
2023/07/06 04:01:23.637, True, 0.674, 0.156786
2023/07/06 04:01:24.141, True, 0.663, 0.155642
2023/07/06 04:01:24.637, True, 0.675, 0.155261
2023/07/06 04:01:25.141, True, 0.663, 0.169451
2023/07/06 04:01:25.645, True, 0.663, 0.156176
2023/07/06 04:01:26.141, True, 0.673, 0.157092
2023/07/06 04:01:26.644, True, 0.664, 0.156252
2023/07/06 04:01:27.149, True, 0.663, 0.158389
2023/07/06 04:01:27.644, True, 0.675, 0.155642
2023/07/06 04:01:28.149, True, 0.662, 0.156863
2023/07/06 04:01:28.653, True, 0.663, 0.156405
2023/07/06 04:01:29.148, True, 0.675, 0.158999
2023/07/06 04:01:29.652, True, 0.662, 0.157397
2023/07/06 04:01:30.149, True, 0.675, 0.158236
2023/07/06 04:01:30.652, True, 0.663, 0.157321
2023/07/06 04:01:31.157, True, 0.663, 0.155947
2023/07/06 04:01:31.660, True, 0.664, 0.157549
2023/07/06 04:01:32.156, True, 0.673, 0.160296
2023/07/06 04:01:32.661, True, 0.663, 0.157244
2023/07/06 04:01:33.164, True, 0.664, 0.159304
2023/07/06 04:01:33.661, True, 1.010, 0.157549
2023/07/06 04:01:34.165, True, 0.663, 0.157549
2023/07/06 04:01:34.669, True, 0.664, 0.157473
2023/07/06 04:01:35.165, True, 0.674, 0.157244
2023/07/06 04:01:35.669, True, 0.663, 0.159609
2023/07/06 04:01:36.172, True, 0.663, 0.157321
2023/07/06 04:01:36.676, True, 0.663, 0.158618
2023/07/06 04:01:37.173, True, 0.675, 0.160983
2023/07/06 04:01:37.676, True, 0.662, 0.159075
2023/07/06 04:01:38.172, True, 0.675, 0.159304
2023/07/06 04:01:38.677, True, 0.662, 0.157473
2023/07/06 04:01:39.181, True, 0.664, 0.160525
2023/07/06 04:01:39.685, True, 0.664, 0.158236
2023/07/06 04:01:40.181, True, 0.673, 0.162356
2023/07/06 04:01:40.685, True, 0.664, 0.159380
2023/07/06 04:01:41.181, True, 0.674, 0.157778
2023/07/06 04:01:41.685, True, 0.664, 0.159686
2023/07/06 04:01:42.189, True, 0.662, 0.159380
2023/07/06 04:01:42.685, True, 0.675, 0.157397
2023/07/06 04:01:43.189, True, 0.331, 0.159991
2023/07/06 04:01:43.693, True, 0.663, 0.159609
2023/07/06 04:01:44.189, True, 0.674, 0.160220
2023/07/06 04:01:44.693, True, 0.662, 0.160296
2023/07/06 04:01:45.197, True, 0.663, 0.160830
2023/07/06 04:01:45.700, True, 0.996, 0.160067
2023/07/06 04:01:46.197, True, 0.674, 0.159686
2023/07/06 04:01:46.701, True, 0.663, 0.159991
2023/07/06 04:01:47.197, True, 0.674, 0.161975
2023/07/06 04:01:47.701, True, 0.662, 0.159609
2023/07/06 04:01:48.205, True, 0.664, 0.162051
2023/07/06 04:01:48.700, True, 0.674, 0.160220
2023/07/06 04:01:49.205, True, 0.663, 0.158999
2023/07/06 04:01:49.709, True, 0.664, 0.161135
2023/07/06 04:01:50.205, True, 0.674, 0.159686
2023/07/06 04:01:50.709, True, 0.663, 0.160220
2023/07/06 04:01:51.213, True, 0.664, 0.160449
2023/07/06 04:01:51.709, True, 0.674, 0.163195
2023/07/06 04:01:52.213, True, 0.331, 0.161822
2023/07/06 04:01:52.717, True, 0.663, 0.159380
2023/07/06 04:01:53.213, True, 0.674, 0.162127
2023/07/06 04:01:53.717, True, 0.665, 0.161440
2023/07/06 04:01:54.221, True, 0.662, 0.159686
2023/07/06 04:01:54.717, True, 0.674, 0.161517
2023/07/06 04:01:55.221, True, 0.664, 0.159991
2023/07/06 04:01:55.717, True, 0.674, 0.161440
2023/07/06 04:01:56.220, True, 0.663, 0.162814
2023/07/06 04:01:56.725, True, 0.664, 0.160983
2023/07/06 04:01:57.221, True, 0.673, 0.162890
2023/07/06 04:01:57.725, True, 0.663, 0.161898
2023/07/06 04:01:58.229, True, 0.664, 0.161898
2023/07/06 04:01:58.725, True, 0.673, 0.158923
2023/07/06 04:01:59.228, True, 0.664, 0.163272
2023/07/06 04:01:59.733, True, 0.663, 0.162203
2023/07/06 04:02:00.237, True, 0.662, 0.161135
2023/07/06 04:02:00.741, True, 0.664, 0.159152
2023/07/06 04:02:01.237, True, 0.337, 0.161593
2023/07/06 04:02:01.741, True, 0.663, 0.161975
2023/07/06 04:02:02.245, True, 0.664, 0.161440
2023/07/06 04:02:02.741, True, 0.674, 0.161517
2023/07/06 04:02:03.244, True, 0.664, 0.159915
2023/07/06 04:02:03.749, True, 0.662, 0.160754
2023/07/06 04:02:04.245, True, 0.675, 0.161746
2023/07/06 04:02:04.748, True, 0.663, 0.162356
2023/07/06 04:02:05.253, True, 0.662, 0.160754
2023/07/06 04:02:05.749, True, 0.675, 0.161059
2023/07/06 04:02:06.252, True, 0.662, 0.161288
2023/07/06 04:02:06.749, True, 0.675, 0.162890
2023/07/06 04:02:07.253, True, 0.662, 0.162432
2023/07/06 04:02:07.757, True, 0.663, 0.161059
2023/07/06 04:02:08.261, True, 0.663, 0.161440
2023/07/06 04:02:08.757, True, 0.675, 0.161593
2023/07/06 04:02:09.261, True, 0.663, 0.161746
2023/07/06 04:02:09.765, True, 0.663, 0.161517
2023/07/06 04:02:10.261, True, 0.337, 0.162585
2023/07/06 04:02:10.764, True, 0.663, 0.162051
2023/07/06 04:02:11.269, True, 0.994, 0.163272
2023/07/06 04:02:11.773, True, 0.331, 0.160220
2023/07/06 04:02:12.269, True, 0.674, 0.161517
2023/07/06 04:02:12.772, True, 0.663, 0.161975
2023/07/06 04:02:13.276, True, 0.663, 0.160449
2023/07/06 04:02:13.773, True, 0.674, 0.161593
2023/07/06 04:02:14.277, True, 0.663, 0.161746
2023/07/06 04:02:14.773, True, 0.673, 0.163119
2023/07/06 04:02:15.276, True, 0.995, 0.160449
2023/07/06 04:02:15.781, True, 0.332, 0.161669
2023/07/06 04:02:16.285, True, 0.663, 0.165484
2023/07/06 04:02:16.781, True, 0.675, 0.162585
2023/07/06 04:02:17.285, True, 0.662, 0.160906
2023/07/06 04:02:17.781, True, 0.675, 0.161364
2023/07/06 04:02:18.285, True, 0.663, 0.161364
2023/07/06 04:02:18.789, True, 0.662, 0.161440
2023/07/06 04:02:19.285, True, 0.674, 0.162203
2023/07/06 04:02:19.789, True, 0.663, 0.160983
2023/07/06 04:02:20.293, True, 0.664, 0.162127
2023/07/06 04:02:20.789, True, 0.675, 0.161288
2023/07/06 04:02:21.292, True, 0.662, 0.160678
2023/07/06 04:02:21.797, True, 0.663, 0.159991
2023/07/06 04:02:22.292, True, 0.337, 0.160525
2023/07/06 04:02:22.797, True, 0.662, 0.160906
2023/07/06 04:02:23.301, True, 0.664, 0.160678
2023/07/06 04:02:23.797, True, 0.674, 0.162203
2023/07/06 04:02:24.301, True, 0.663, 0.159762
2023/07/06 04:02:24.805, True, 0.664, 0.161212
2023/07/06 04:02:25.301, True, 0.674, 0.163424
2023/07/06 04:02:25.805, True, 0.662, 0.162432
2023/07/06 04:02:26.309, True, 0.663, 0.159457
2023/07/06 04:02:26.804, True, 0.675, 0.163195
2023/07/06 04:02:27.308, True, 0.662, 0.161288
2023/07/06 04:02:27.813, True, 0.332, 0.161975
2023/07/06 04:02:28.308, True, 0.675, 0.161746
2023/07/06 04:02:28.813, True, 0.663, 0.162661
2023/07/06 04:02:29.317, True, 0.662, 0.162203
2023/07/06 04:02:29.813, True, 0.675, 0.164263
2023/07/06 04:02:30.317, True, 0.663, 0.162280
2023/07/06 04:02:30.821, True, 0.663, 0.161212
2023/07/06 04:02:31.317, True, 0.674, 0.161669
2023/07/06 04:02:31.820, True, 0.663, 0.162661
2023/07/06 04:02:32.325, True, 0.663, 0.161135
2023/07/06 04:02:32.821, True, 0.673, 0.162661
2023/07/06 04:02:33.325, True, 0.664, 0.162051
2023/07/06 04:02:33.829, True, 0.664, 0.160678
2023/07/06 04:02:34.333, True, 0.662, 0.162966
2023/07/06 04:02:34.828, True, 0.675, 0.162890
2023/07/06 04:02:35.333, True, 0.663, 0.165026
2023/07/06 04:02:35.836, True, 0.663, 0.162127
2023/07/06 04:02:36.332, True, 0.675, 0.163195
2023/07/06 04:02:36.836, True, 0.662, 0.164034
2023/07/06 04:02:37.333, True, 0.675, 0.162280
2023/07/06 04:02:37.836, True, 0.332, 0.161059
2023/07/06 04:02:38.341, True, 0.663, 0.162814
2023/07/06 04:02:38.837, True, 0.674, 0.163119
2023/07/06 04:02:39.341, True, 0.994, 0.163577
2023/07/06 04:02:39.844, True, 0.332, 0.161669
2023/07/06 04:02:40.340, True, 0.674, 0.160449
2023/07/06 04:02:40.845, True, 0.663, 0.163272
2023/07/06 04:02:41.349, True, 0.663, 0.161898
2023/07/06 04:02:41.845, True, 0.673, 0.160601
2023/07/06 04:02:42.349, True, 0.663, 0.163043
2023/07/06 04:02:42.853, True, 0.664, 0.162890
2023/07/06 04:02:43.357, True, 0.662, 0.162890
2023/07/06 04:02:43.853, True, 0.674, 0.160830
2023/07/06 04:02:44.357, True, 0.664, 0.161364
2023/07/06 04:02:44.860, True, 0.663, 0.161975
2023/07/06 04:02:45.357, True, 0.674, 0.164034
2023/07/06 04:02:45.860, True, 0.664, 0.161898
2023/07/06 04:02:46.365, True, 0.662, 0.164340
2023/07/06 04:02:46.868, True, 0.664, 0.162203
2023/07/06 04:02:47.365, True, 0.674, 0.162661
2023/07/06 04:02:47.869, True, 0.663, 0.162356
2023/07/06 04:02:48.373, True, 0.663, 0.163653
2023/07/06 04:02:48.868, True, 0.675, 0.160678
2023/07/06 04:02:49.373, True, 0.663, 0.160983
2023/07/06 04:02:49.877, True, 0.663, 0.161364
2023/07/06 04:02:50.373, True, 0.675, 0.161669
2023/07/06 04:02:50.877, True, 0.663, 0.159533
2023/07/06 04:02:51.373, True, 0.673, 0.161212
2023/07/06 04:02:51.877, True, 0.663, 0.162814
2023/07/06 04:02:52.381, True, 0.664, 0.162051
2023/07/06 04:02:52.877, True, 0.673, 0.161975
2023/07/06 04:02:53.380, True, 0.664, 0.162051
2023/07/06 04:02:53.885, True, 0.662, 0.162432
2023/07/06 04:02:54.380, True, 0.675, 0.162890
2023/07/06 04:02:54.885, True, 0.662, 0.162509
2023/07/06 04:02:55.389, True, 0.663, 0.161135
2023/07/06 04:02:55.885, True, 0.674, 0.160754
2023/07/06 04:02:56.389, True, 0.663, 0.162432
2023/07/06 04:02:56.892, True, 0.664, 0.163806
2023/07/06 04:02:57.396, True, 0.331, 0.162280
2023/07/06 04:02:57.893, True, 0.675, 0.159686
2023/07/06 04:02:58.396, True, 0.664, 0.161593
2023/07/06 04:02:58.893, True, 0.674, 0.159915
2023/07/06 04:02:59.397, True, 0.662, 0.162661
2023/07/06 04:02:59.901, True, 0.664, 0.161440
2023/07/06 04:03:00.397, True, 0.675, 0.162280
2023/07/06 04:03:00.901, True, 0.662, 0.160678
2023/07/06 04:03:01.405, True, 0.663, 0.160830
2023/07/06 04:03:01.909, True, 0.664, 0.162509
2023/07/06 04:03:02.405, True, 0.675, 0.161212
2023/07/06 04:03:02.909, True, 0.663, 0.161746
2023/07/06 04:03:03.413, True, 0.652, 0.159686
2023/07/06 04:03:03.909, True, 0.684, 0.160143
2023/07/06 04:03:04.413, True, 0.663, 0.160830
2023/07/06 04:03:04.909, True, 0.674, 0.163272
2023/07/06 04:03:05.413, True, 0.663, 0.163195
2023/07/06 04:03:05.917, True, 0.663, 0.162432
2023/07/06 04:03:06.421, True, 0.663, 0.161593
2023/07/06 04:03:06.917, True, 0.674, 0.159762
2023/07/06 04:03:07.421, True, 0.663, 0.163424
2023/07/06 04:03:07.925, True, 0.663, 0.160449
2023/07/06 04:03:08.421, True, 0.674, 0.160983
2023/07/06 04:03:08.925, True, 0.663, 0.161517
2023/07/06 04:03:09.428, True, 0.663, 0.163577
2023/07/06 04:03:09.925, True, 0.674, 0.160601
2023/07/06 04:03:10.429, True, 0.663, 0.162890
2023/07/06 04:03:10.933, True, 0.663, 0.161212
2023/07/06 04:03:11.429, True, 0.674, 0.162203
2023/07/06 04:03:11.933, True, 0.664, 0.162661
2023/07/06 04:03:12.445, True, 0.652, 0.158846
2023/07/06 04:03:12.941, True, 0.674, 0.160754
2023/07/06 04:03:13.445, True, 0.664, 0.162432
2023/07/06 04:03:13.941, True, 0.674, 0.160449
2023/07/06 04:03:14.445, True, 0.662, 0.162509
2023/07/06 04:03:14.949, True, 0.663, 0.161288
2023/07/06 04:03:15.453, True, 0.663, 0.162051
2023/07/06 04:03:15.949, True, 0.337, 0.161135
2023/07/06 04:03:16.453, True, 0.662, 0.161975
2023/07/06 04:03:16.957, True, 0.664, 0.159686
2023/07/06 04:03:17.453, True, 0.673, 0.160983
2023/07/06 04:03:17.957, True, 0.664, 0.161440
2023/07/06 04:03:18.461, True, 0.663, 0.159915
2023/07/06 04:03:18.957, True, 0.674, 0.159533
2023/07/06 04:03:19.461, True, 0.664, 0.161822
2023/07/06 04:03:19.965, True, 0.662, 0.160220
2023/07/06 04:03:20.469, True, 0.664, 0.163653
2023/07/06 04:03:20.965, True, 0.673, 0.160449
2023/07/06 04:03:21.469, True, 0.664, 0.162280
2023/07/06 04:03:21.972, True, 0.663, 0.161975
2023/07/06 04:03:22.469, True, 0.674, 0.162737
2023/07/06 04:03:22.972, True, 0.663, 0.163348
2023/07/06 04:03:23.477, True, 0.664, 0.161898
2023/07/06 04:03:23.973, True, 0.674, 0.162203
2023/07/06 04:03:24.477, True, 0.331, 0.163119
2023/07/06 04:03:24.980, True, 0.663, 0.160067
2023/07/06 04:03:25.477, True, 0.674, 0.163500
2023/07/06 04:03:25.981, True, 0.663, 0.161212
2023/07/06 04:03:26.484, True, 0.664, 0.162280
2023/07/06 04:03:26.981, True, 0.674, 0.159609
2023/07/06 04:03:27.485, True, 0.662, 0.161975
2023/07/06 04:03:27.989, True, 0.664, 0.163500
2023/07/06 04:03:28.485, True, 0.673, 0.161669
2023/07/06 04:03:28.989, True, 0.663, 0.160678
2023/07/06 04:03:29.493, True, 0.664, 0.159609
2023/07/06 04:03:29.989, True, 0.673, 0.162814
2023/07/06 04:03:30.493, True, 0.663, 0.160830
2023/07/06 04:03:30.989, True, 0.675, 0.159838
2023/07/06 04:03:31.493, True, 0.663, 0.164721
2023/07/06 04:03:31.997, True, 0.664, 0.162814
2023/07/06 04:03:32.500, True, 0.663, 0.158923
2023/07/06 04:03:32.996, True, 0.673, 0.163043
2023/07/06 04:03:33.501, True, 0.663, 0.163729
2023/07/06 04:03:34.005, True, 0.663, 0.161822
2023/07/06 04:03:34.501, True, 0.674, 0.162814
2023/07/06 04:03:35.005, True, 0.332, 0.160143
2023/07/06 04:03:35.509, True, 0.664, 0.160220
2023/07/06 04:03:36.005, True, 0.675, 0.160830
2023/07/06 04:03:36.509, True, 0.662, 0.160754
2023/07/06 04:03:37.013, True, 0.664, 0.163577
2023/07/06 04:03:37.509, True, 0.673, 0.160525
2023/07/06 04:03:38.013, True, 0.664, 0.161212
2023/07/06 04:03:38.517, True, 0.664, 0.161746
2023/07/06 04:03:39.013, True, 0.673, 0.162280
2023/07/06 04:03:39.516, True, 0.663, 0.159915
2023/07/06 04:03:40.021, True, 0.663, 0.160296
2023/07/06 04:03:40.524, True, 0.664, 0.161669
2023/07/06 04:03:41.021, True, 0.674, 0.161593
2023/07/06 04:03:41.524, True, 0.663, 0.161517
2023/07/06 04:03:42.021, True, 0.674, 0.160296
2023/07/06 04:03:42.525, True, 0.664, 0.161593
2023/07/06 04:03:43.029, True, 0.332, 0.161135
2023/07/06 04:03:43.525, True, 0.674, 0.163043
2023/07/06 04:03:44.029, True, 0.662, 0.159609
2023/07/06 04:03:44.533, True, 0.664, 0.161212
2023/07/06 04:03:45.037, True, 0.663, 0.162661
2023/07/06 04:03:45.533, True, 0.673, 0.159152
2023/07/06 04:03:46.037, True, 0.663, 0.159991
2023/07/06 04:03:46.533, True, 0.675, 0.164950
2023/07/06 04:03:47.037, True, 0.662, 0.161288
2023/07/06 04:03:47.541, True, 0.664, 0.160220
2023/07/06 04:03:48.036, True, 0.674, 0.161288
2023/07/06 04:03:48.541, True, 0.662, 0.161746
2023/07/06 04:03:49.045, True, 0.663, 0.159762
2023/07/06 04:03:49.541, True, 0.674, 0.160906
2023/07/06 04:03:50.045, True, 0.664, 0.161212
2023/07/06 04:03:50.549, True, 0.331, 0.161898
2023/07/06 04:03:51.045, True, 0.674, 0.163577
2023/07/06 04:03:51.549, True, 0.662, 0.161364
2023/07/06 04:03:52.053, True, 0.663, 0.161593
2023/07/06 04:03:52.556, True, 0.664, 0.162814
2023/07/06 04:03:53.053, True, 0.673, 0.161440
2023/07/06 04:03:53.557, True, 0.664, 0.160906
2023/07/06 04:03:54.061, True, 0.664, 0.161822
2023/07/06 04:03:54.557, True, 0.674, 0.162509
2023/07/06 04:03:55.061, True, 0.662, 0.161822
2023/07/06 04:03:55.565, True, 0.663, 0.160525
2023/07/06 04:03:56.061, True, 0.674, 0.159228
2023/07/06 04:03:56.565, True, 0.663, 0.163577
2023/07/06 04:03:57.069, True, 0.664, 0.162127
2023/07/06 04:03:57.565, True, 0.337, 0.159915
2023/07/06 04:03:58.069, True, 0.663, 0.163348
2023/07/06 04:03:58.573, True, 0.995, 0.161059
2023/07/06 04:03:59.069, True, 0.674, 0.160754
2023/07/06 04:03:59.573, True, 0.663, 0.161364
2023/07/06 04:04:00.077, True, 0.332, 0.160754
2023/07/06 04:04:00.573, True, 0.673, 0.159991
2023/07/06 04:04:01.077, True, 0.664, 0.161746
2023/07/06 04:04:01.581, True, 0.662, 0.161898
2023/07/06 04:04:02.077, True, 0.675, 0.161440
2023/07/06 04:04:02.580, True, 0.663, 0.164034
2023/07/06 04:04:03.085, True, 0.663, 0.163729
2023/07/06 04:04:03.580, True, 0.674, 0.160220
2023/07/06 04:04:04.085, True, 0.664, 0.160449
2023/07/06 04:04:04.589, True, 0.663, 0.162661
2023/07/06 04:04:05.085, True, 0.675, 0.159838
2023/07/06 04:04:05.589, True, 0.663, 0.160525
2023/07/06 04:04:06.093, True, 0.663, 0.161746
2023/07/06 04:04:06.589, True, 0.674, 0.161059
2023/07/06 04:04:07.093, True, 0.664, 0.162432
2023/07/06 04:04:07.597, True, 0.663, 0.159838
2023/07/06 04:04:08.092, True, 0.673, 0.161135
2023/07/06 04:04:08.597, True, 0.663, 0.160601
2023/07/06 04:04:09.101, True, 0.664, 0.159915
2023/07/06 04:04:09.605, True, 0.662, 0.158846
2023/07/06 04:04:10.101, True, 0.675, 0.160678
2023/07/06 04:04:10.604, True, 0.664, 0.160906
2023/07/06 04:04:11.108, True, 0.662, 0.160678